owner,sensor,date,latitude,longitude,vertical_datum,wind_speed,wind_to_direction,wind_speed_of_gust,qcFlag 
TABS,ioos:station:wmo:42047:1,2013-08-01T00:00:00Z,27.8966,-93.5973,4.0,0.582494635,214.5086528,1.47,'11111222,11111222,11111222' 
TABS,ioos:station:wmo:42047:1,2013-08-01T00:30:00Z,27.8966,-93.5973,4.0,1.320984481,156.3460524,2.03,'11111222,11111222,11111222' 
TABS,ioos:station:wmo:42047:1,2013-08-01T01:00:00Z,27.8966,-93.5973,4.0,1.507846146,158.198852,3.52,'11111222,11111222,11111222' 
TABS,ioos:station:wmo:42047:1,2013-08-01T01:30:00Z,27.8966,-93.5973,4.0,1.034456379,163.1418511,1.81,'11111222,11111222,11111222' 
TABS,ioos:station:wmo:42047:1,2013-08-01T02:00:00Z,27.8966,-93.5973,4.0,1.578670327,153.2729112,2.38,'11111222,11111222,11111222' 
TABS,ioos:station:wmo:42047:1,2013-08-01T02:30:00Z,27.8966,-93.5973,4.0,1.83883115,146.3102217,2.88,'11111222,11111222,11111222' 
TABS,ioos:station:wmo:42047:1,2013-08-01T03:00:00Z,27.8966,-93.5973,4.0,2.058664616,136.7717813,2.67,'11111222,11111222,11111222' 
TABS,ioos:station:wmo:42047:1,2013-08-01T03:30:00Z,27.8966,-93.5973,4.0,2.576062887,142.7300478,3.21,'11111222,11111222,11111222' 
TABS,ioos:station:wmo:42047:1,2013-08-01T04:00:00Z,27.8966,-93.5973,4.0,2.507688178,145.2328863,3.18,'11111222,11111222,11111222' 
TABS,ioos:station:wmo:42047:1,2013-08-01T04:30:00Z,27.8966,-93.5973,4.0,2.791128804,154.5369249,3.93,'11111222,11111222,11111222' 
TABS,ioos:station:wmo:42047:1,2013-08-01T05:00:00Z,27.8966,-93.5973,4.0,4.611951864,167.3501573,5.69,'11111222,11111222,11111222' 
TABS,ioos:station:wmo:42047:1,2013-08-01T05:30:00Z,27.8966,-93.5973,4.0,4.713491275,163.1030735,5.79,'11111222,11111222,11111222' 
TABS,ioos:station:wmo:42047:1,2013-08-01T06:00:00Z,27.8966,-93.5973,4.0,4.361765698,171.1641854,5.53,'11111222,11111222,11111222' 
TABS,ioos:station:wmo:42047:1,2013-08-01T06:30:00Z,27.8966,-93.5973,4.0,4.282627698,177.993007,5.62,'11111222,11111222,11111222' 
TABS,ioos:station:wmo:42047:1,2013-08-01T07:00:00Z,27.8966,-93.5973,4.0,4.013601874,171.5471107,5.17,'11111222,11111222,11111222' 
TABS,ioos:station:wmo:42047:1,2013-08-01T07:30:00Z,27.8966,-93.5973,4.0,4.030446625,180.8531843,5.21,'11111222,11111222,11111222' 
TABS,ioos:station:wmo:42047:1,2013-08-01T08:00:00Z,27.8966,-93.5973,4.0,3.703903346,177.3695579,4.74,'11111222,11111222,11111222' 
TABS,ioos:station:wmo:42047:1,2013-08-01T08:30:00Z,27.8966,-93.5973,4.0,4.565303933,182.7623323,5.48,'11111222,11111222,11111222' 
TABS,ioos:station:wmo:42047:1,2013-08-01T09:00:00Z,27.8966,-93.5973,4.0,5.057291765,194.7783376,6.05,'11111222,11111222,11111222' 
TABS,ioos:station:wmo:42047:1,2013-08-01T09:30:00Z,27.8966,-93.5973,4.0,4.094838214,212.3318172,5.43,'11111222,11111222,11111222' 
TABS,ioos:station:wmo:42047:1,2013-08-01T10:00:00Z,27.8966,-93.5973,4.0,3.374048014,216.5643574,4.1,'11111222,11111222,11111222' 
TABS,ioos:station:wmo:42047:1,2013-08-01T10:30:00Z,27.8966,-93.5973,4.0,3.169369022,229.2223256,4.31,'11111222,11111222,11111222' 
TABS,ioos:station:wmo:42047:1,2013-08-01T11:00:00Z,27.8966,-93.5973,4.0,3.394377704,225.7162635,4.28,'11111222,11111222,11111222' 
TABS,ioos:station:wmo:42047:1,2013-08-01T11:30:00Z,27.8966,-93.5973,4.0,3.418435315,239.9849278,3.92,'11111222,11111222,11111222' 
TABS,ioos:station:wmo:42047:1,2013-08-01T12:00:00Z,27.8966,-93.5973,4.0,3.467809107,246.909937,4.2,'11111222,11111222,11111222' 
TABS,ioos:station:wmo:42047:1,2013-08-01T12:30:00Z,27.8966,-93.5973,4.0,2.645146499,249.6468184,3.45,'11111222,11111222,11111222' 
TABS,ioos:station:wmo:42047:1,2013-08-01T13:00:00Z,27.8966,-93.5973,4.0,2.723104846,267.2636874,3.19,'11111222,11111222,11111222' 
TABS,ioos:station:wmo:42047:1,2013-08-01T13:30:00Z,27.8966,-93.5973,4.0,2.678544381,261.627909,3.45,'11111222,11111222,11111222' 
TABS,ioos:station:wmo:42047:1,2013-08-01T14:00:00Z,27.8966,-93.5973,4.0,2.298978034,251.4862833,2.94,'11111222,11111222,11111222' 
TABS,ioos:station:wmo:42047:1,2013-08-01T14:30:00Z,27.8966,-93.5973,4.0,2.602479587,255.5366163,3.48,'11111222,11111222,11111222' 
TABS,ioos:station:wmo:42047:1,2013-08-01T15:00:00Z,27.8966,-93.5973,4.0,2.498259394,256.5756613,3.35,'11111222,11111222,11111222' 
TABS,ioos:station:wmo:42047:1,2013-08-01T15:30:00Z,27.8966,-93.5973,4.0,2.751526849,258.8942829,3.61,'11111222,11111222,11111222' 
TABS,ioos:station:wmo:42047:1,2013-08-01T16:00:00Z,27.8966,-93.5973,4.0,2.522102298,281.6663285,2.97,'11111222,11111222,11111222' 
TABS,ioos:station:wmo:42047:1,2013-08-01T16:30:00Z,27.8966,-93.5973,4.0,2.804924241,308.3407031,3.71,'11111222,11111222,11111222' 
TABS,ioos:station:wmo:42047:1,2013-08-01T17:00:00Z,27.8966,-93.5973,4.0,2.270682717,301.3098772,3.12,'11111222,11111222,11111222' 
TABS,ioos:station:wmo:42047:1,2013-08-01T17:30:00Z,27.8966,-93.5973,4.0,2.300804207,286.1505959,2.93,'11111222,11111222,11111222' 
TABS,ioos:station:wmo:42047:1,2013-08-01T18:00:00Z,27.8966,-93.5973,4.0,2.47842692,305.806334,2.94,'11111222,11111222,11111222' 
TABS,ioos:station:wmo:42047:1,2013-08-01T18:30:00Z,27.8966,-93.5973,4.0,2.569708155,309.9482172,3.39,'11111222,11111222,11111222' 
TABS,ioos:station:wmo:42047:1,2013-08-01T19:00:00Z,27.8966,-93.5973,4.0,1.724093965,306.2716188,2.38,'11111222,11111222,11111222' 
TABS,ioos:station:wmo:42047:1,2013-08-01T19:30:00Z,27.8966,-93.5973,4.0,1.287633488,353.7578898,2.27,'11111222,11111222,11111222' 
TABS,ioos:station:wmo:42047:1,2013-08-01T20:00:00Z,27.8966,-93.5973,4.0,2.09121974,9.912517808,3.2,'11111222,11111222,11111222' 
TABS,ioos:station:wmo:42047:1,2013-08-01T20:30:00Z,27.8966,-93.5973,4.0,2.285300855,26.22840881,3.15,'11111222,11111222,11111222' 
TABS,ioos:station:wmo:42047:1,2013-08-01T21:00:00Z,27.8966,-93.5973,4.0,2.135720019,49.74756132,2.92,'11111222,11111222,11111222' 
TABS,ioos:station:wmo:42047:1,2013-08-01T21:30:00Z,27.8966,-93.5973,4.0,1.825267104,34.73456786,2.65,'11111222,11111222,11111222' 
TABS,ioos:station:wmo:42047:1,2013-08-01T22:00:00Z,27.8966,-93.5973,4.0,2.018539076,31.01215305,2.81,'11111222,11111222,11111222' 
TABS,ioos:station:wmo:42047:1,2013-08-01T22:30:00Z,27.8966,-93.5973,4.0,2.110094785,36.32653055,2.65,'11111222,11111222,11111222' 
TABS,ioos:station:wmo:42047:1,2013-08-01T23:00:00Z,27.8966,-93.5973,4.0,1.312440475,35.38513752,1.96,'11111222,11111222,11111222' 
TABS,ioos:station:wmo:42047:1,2013-08-01T23:30:00Z,27.8966,-93.5973,4.0,1.301883251,24.99003721,1.73,'11111222,11111222,11111222' 
TABS,ioos:station:wmo:42047:1,2013-08-02T00:00:00Z,27.8966,-93.5973,4.0,0.8,90.00042092,1.19,'11111222,11111222,11111222' 
TABS,ioos:station:wmo:42047:1,2013-08-02T00:30:00Z,27.8966,-93.5973,4.0,1.04560987,123.6904097,1.83,'11111222,11111222,11111222' 
TABS,ioos:station:wmo:42047:1,2013-08-02T01:00:00Z,27.8966,-93.5973,4.0,1.4611297,101.8486594,1.9,'11111222,11111222,11111222' 
TABS,ioos:station:wmo:42047:1,2013-08-02T01:30:00Z,27.8966,-93.5973,4.0,1.820027472,90.31522899,2.49,'11111222,11111222,11111222' 
TABS,ioos:station:wmo:42047:1,2013-08-02T02:00:00Z,27.8966,-93.5973,4.0,2.1362116,136.5177263,2.87,'11111222,11111222,11111222' 
TABS,ioos:station:wmo:42047:1,2013-08-02T02:30:00Z,27.8966,-93.5973,4.0,2.736512379,134.8522653,3.57,'11111222,11111222,11111222' 
TABS,ioos:station:wmo:42047:1,2013-08-02T03:00:00Z,27.8966,-93.5973,4.0,3.211681802,139.1668108,3.92,'11111222,11111222,11111222' 
TABS,ioos:station:wmo:42047:1,2013-08-02T03:30:00Z,27.8966,-93.5973,4.0,3.201312231,147.5016405,3.97,'11111222,11111222,11111222' 
TABS,ioos:station:wmo:42047:1,2013-08-02T04:00:00Z,27.8966,-93.5973,4.0,3.144296424,152.5387766,4.02,'11111222,11111222,11111222' 
TABS,ioos:station:wmo:42047:1,2013-08-02T04:30:00Z,27.8966,-93.5973,4.0,3.361681127,162.158183,3.97,'11111222,11111222,11111222' 
TABS,ioos:station:wmo:42047:1,2013-08-02T05:00:00Z,27.8966,-93.5973,4.0,3.483130776,168.2386589,4.22,'11111222,11111222,11111222' 
TABS,ioos:station:wmo:42047:1,2013-08-02T05:30:00Z,27.8966,-93.5973,4.0,3.349402932,173.8300498,3.92,'11111222,11111222,11111222' 
TABS,ioos:station:wmo:42047:1,2013-08-02T06:00:00Z,27.8966,-93.5973,4.0,3.17227048,182.1680957,3.73,'11111222,11111222,11111222' 
TABS,ioos:station:wmo:42047:1,2013-08-02T06:30:00Z,27.8966,-93.5973,4.0,3.44419802,182.8293797,4.19,'11111222,11111222,11111222' 
TABS,ioos:station:wmo:42047:1,2013-08-02T07:00:00Z,27.8966,-93.5973,4.0,3.334726376,188.2760839,3.92,'11111222,11111222,11111222' 
TABS,ioos:station:wmo:42047:1,2013-08-02T07:30:00Z,27.8966,-93.5973,4.0,3.693304753,192.1924544,4.46,'11111222,11111222,11111222' 
TABS,ioos:station:wmo:42047:1,2013-08-02T08:00:00Z,27.8966,-93.5973,4.0,4.071768657,181.6890277,5.41,'11111222,11111222,11111222' 
TABS,ioos:station:wmo:42047:1,2013-08-02T08:30:00Z,27.8966,-93.5973,4.0,3.954339389,187.5565368,4.81,'11111222,11111222,11111222' 
TABS,ioos:station:wmo:42047:1,2013-08-02T09:00:00Z,27.8966,-93.5973,4.0,3.69758029,190.1248584,4.84,'11111222,11111222,11111222' 
TABS,ioos:station:wmo:42047:1,2013-08-02T09:30:00Z,27.8966,-93.5973,4.0,3.412242664,206.6402921,4.33,'11111222,11111222,11111222' 
TABS,ioos:station:wmo:42047:1,2013-08-02T10:00:00Z,27.8966,-93.5973,4.0,3.612478374,184.763841,4.27,'11111222,11111222,11111222' 
TABS,ioos:station:wmo:42047:1,2013-08-02T10:30:00Z,27.8966,-93.5973,4.0,4.084176784,163.2069459,5.15,'11111222,11111222,11111222' 
TABS,ioos:station:wmo:42047:1,2013-08-02T11:00:00Z,27.8966,-93.5973,4.0,3.746264806,172.0215309,4.98,'11111222,11111222,11111222' 
TABS,ioos:station:wmo:42047:1,2013-08-02T11:30:00Z,27.8966,-93.5973,4.0,2.914875641,187.4909221,3.81,'11111222,11111222,11111222' 
TABS,ioos:station:wmo:42047:1,2013-08-02T12:00:00Z,27.8966,-93.5973,4.0,1.880026596,180.3049717,2.45,'11111222,11111222,11111222' 
TABS,ioos:station:wmo:42047:1,2013-08-02T12:30:00Z,27.8966,-93.5973,4.0,2.047486264,190.9808348,2.66,'11111222,11111222,11111222' 
TABS,ioos:station:wmo:42047:1,2013-08-02T13:00:00Z,27.8966,-93.5973,4.0,2.994878962,199.1006112,3.59,'11111222,11111222,11111222' 
TABS,ioos:station:wmo:42047:1,2013-08-02T13:30:00Z,27.8966,-93.5973,4.0,2.10793738,200.8425244,2.77,'11111222,11111222,11111222' 
TABS,ioos:station:wmo:42047:1,2013-08-02T14:00:00Z,27.8966,-93.5973,4.0,2.406262662,211.5764405,2.88,'11111222,11111222,11111222' 
TABS,ioos:station:wmo:42047:1,2013-08-02T14:30:00Z,27.8966,-93.5973,4.0,1.717469068,197.2745896,2.11,'11111222,11111222,11111222' 
TABS,ioos:station:wmo:42047:1,2013-08-02T15:00:00Z,27.8966,-93.5973,4.0,1.746138597,163.0181437,2.22,'11111222,11111222,11111222' 
TABS,ioos:station:wmo:42047:1,2013-08-02T15:30:00Z,27.8966,-93.5973,4.0,1.892511559,125.5380156,2.63,'11111222,11111222,11111222' 
TABS,ioos:station:wmo:42047:1,2013-08-02T16:00:00Z,27.8966,-93.5973,4.0,1.03406963,170.5379104,1.74,'11111222,11111222,11111222' 
TABS,ioos:station:wmo:42047:1,2013-08-02T16:30:00Z,27.8966,-93.5973,4.0,1.473838526,250.5815747,2.18,'11111222,11111222,11111222' 
TABS,ioos:station:wmo:42047:1,2013-08-02T17:00:00Z,27.8966,-93.5973,4.0,0.303644529,197.2416295,0.79,'11111222,11111222,11111222' 
TABS,ioos:station:wmo:42047:1,2013-08-02T17:30:00Z,27.8966,-93.5973,4.0,0.579741322,194.9952545,1.29,'11111222,11111222,11111222' 
TABS,ioos:station:wmo:42047:1,2013-08-02T18:00:00Z,27.8966,-93.5973,4.0,0.984123976,185.2473371,1.7,'11111222,11111222,11111222' 
TABS,ioos:station:wmo:42047:1,2013-08-02T18:30:00Z,27.8966,-93.5973,4.0,1.343167897,129.2597225,1.97,'11111222,11111222,11111222' 
TABS,ioos:station:wmo:42047:1,2013-08-02T19:00:00Z,27.8966,-93.5973,4.0,1.683716128,129.4573366,2.59,'11111222,11111222,11111222' 
TABS,ioos:station:wmo:42047:1,2013-08-02T19:30:00Z,27.8966,-93.5973,4.0,1.866574402,123.8606785,2.81,'11111222,11111222,11111222' 
TABS,ioos:station:wmo:42047:1,2013-08-02T20:00:00Z,27.8966,-93.5973,4.0,1.970609043,121.5126106,3.0,'11111222,11111222,11111222' 
TABS,ioos:station:wmo:42047:1,2013-08-02T20:30:00Z,27.8966,-93.5973,4.0,2.302042571,126.5217835,2.94,'11111222,11111222,11111222' 
TABS,ioos:station:wmo:42047:1,2013-08-02T21:00:00Z,27.8966,-93.5973,4.0,2.986134625,113.9044088,4.13,'11111222,11111222,11111222' 
TABS,ioos:station:wmo:42047:1,2013-08-02T21:30:00Z,27.8966,-93.5973,4.0,2.88444102,123.6904097,3.88,'11111222,11111222,11111222' 
TABS,ioos:station:wmo:42047:1,2013-08-02T22:00:00Z,27.8966,-93.5973,4.0,2.726847997,128.2991744,3.69,'11111222,11111222,11111222' 
TABS,ioos:station:wmo:42047:1,2013-08-02T22:30:00Z,27.8966,-93.5973,4.0,2.787758957,132.965286,3.58,'11111222,11111222,11111222' 
TABS,ioos:station:wmo:42047:1,2013-08-02T23:00:00Z,27.8966,-93.5973,4.0,2.910755916,138.2033006,3.74,'11111222,11111222,11111222' 
TABS,ioos:station:wmo:42047:1,2013-08-02T23:30:00Z,27.8966,-93.5973,4.0,3.376818029,149.1820203,4.7,'11111222,11111222,11111222' 
TABS,ioos:station:wmo:42047:1,2013-08-03T00:00:00Z,27.8966,-93.5973,4.0,3.357737333,141.2871943,4.1,'11111222,11111222,11111222' 
TABS,ioos:station:wmo:42047:1,2013-08-03T00:30:00Z,27.8966,-93.5973,4.0,3.012723021,141.8751176,3.86,'11111222,11111222,11111222' 
TABS,ioos:station:wmo:42047:1,2013-08-03T01:00:00Z,27.8966,-93.5973,4.0,3.021853736,139.5635348,4.12,'11111222,11111222,11111222' 
TABS,ioos:station:wmo:42047:1,2013-08-03T01:30:00Z,27.8966,-93.5973,4.0,3.809278147,140.7532269,4.74,'11111222,11111222,11111222' 
TABS,ioos:station:wmo:42047:1,2013-08-03T02:00:00Z,27.8966,-93.5973,4.0,3.664000546,143.0991241,4.73,'11111222,11111222,11111222' 
TABS,ioos:station:wmo:42047:1,2013-08-03T02:30:00Z,27.8966,-93.5973,4.0,4.284040149,148.94478,5.59,'11111222,11111222,11111222' 
TABS,ioos:station:wmo:42047:1,2013-08-03T03:00:00Z,27.8966,-93.5973,4.0,3.971901308,152.4029791,5.09,'11111222,11111222,11111222' 
TABS,ioos:station:wmo:42047:1,2013-08-03T03:30:00Z,27.8966,-93.5973,4.0,3.923531572,151.8676588,5.12,'11111222,11111222,11111222' 
TABS,ioos:station:wmo:42047:1,2013-08-03T04:00:00Z,27.8966,-93.5973,4.0,4.155309856,154.4835715,5.18,'11111222,11111222,11111222' 
TABS,ioos:station:wmo:42047:1,2013-08-03T04:30:00Z,27.8966,-93.5973,4.0,5.097342445,158.1153611,5.98,'11111222,11111222,11111222' 
TABS,ioos:station:wmo:42047:1,2013-08-03T05:00:00Z,27.8966,-93.5973,4.0,5.595015639,158.0657392,6.54,'11111222,11111222,11111222' 
TABS,ioos:station:wmo:42047:1,2013-08-03T05:30:00Z,27.8966,-93.5973,4.0,5.551306153,159.2146937,6.63,'11111222,11111222,11111222' 
TABS,ioos:station:wmo:42047:1,2013-08-03T06:00:00Z,27.8966,-93.5973,4.0,5.308116427,151.1658395,6.67,'11111222,11111222,11111222' 
TABS,ioos:station:wmo:42047:1,2013-08-03T06:30:00Z,27.8966,-93.5973,4.0,5.444997704,158.9023102,6.5,'11111222,11111222,11111222' 
TABS,ioos:station:wmo:42047:1,2013-08-03T07:00:00Z,27.8966,-93.5973,4.0,5.968802225,165.9407184,7.59,'11111222,11111222,11111222' 
TABS,ioos:station:wmo:42047:1,2013-08-03T07:30:00Z,27.8966,-93.5973,4.0,5.486756783,161.0699657,6.36,'11111222,11111222,11111222' 
TABS,ioos:station:wmo:42047:1,2013-08-03T08:00:00Z,27.8966,-93.5973,4.0,5.218898351,159.2386232,6.29,'11111222,11111222,11111222' 
TABS,ioos:station:wmo:42047:1,2013-08-03T08:30:00Z,27.8966,-93.5973,4.0,6.147519825,161.801088,7.18,'11111222,11111222,11111222' 
TABS,ioos:station:wmo:42047:1,2013-08-03T09:00:00Z,27.8966,-93.5973,4.0,5.307278022,158.5597015,6.51,'11111222,11111222,11111222' 
TABS,ioos:station:wmo:42047:1,2013-08-03T09:30:00Z,27.8966,-93.5973,4.0,4.859650193,158.1331711,6.18,'11111222,11111222,11111222' 
TABS,ioos:station:wmo:42047:1,2013-08-03T10:00:00Z,27.8966,-93.5973,4.0,4.24392507,186.0869344,5.3,'11111222,11111222,11111222' 
TABS,ioos:station:wmo:42047:1,2013-08-03T10:30:00Z,27.8966,-93.5973,4.0,4.49944441,165.191868,5.29,'11111222,11111222,11111222' 
TABS,ioos:station:wmo:42047:1,2013-08-03T11:00:00Z,27.8966,-93.5973,4.0,4.45812741,173.5606852,5.57,'11111222,11111222,11111222' 
TABS,ioos:station:wmo:42047:1,2013-08-03T11:30:00Z,27.8966,-93.5973,4.0,3.720860116,181.232185,4.67,'11111222,11111222,11111222' 
TABS,ioos:station:wmo:42047:1,2013-08-03T12:00:00Z,27.8966,-93.5973,4.0,4.082082802,170.8378848,4.81,'11111222,11111222,11111222' 
TABS,ioos:station:wmo:42047:1,2013-08-03T12:30:00Z,27.8966,-93.5973,4.0,3.14734809,186.018731,6.57,'11111222,11111222,11111222' 
TABS,ioos:station:wmo:42047:1,2013-08-03T13:00:00Z,27.8966,-93.5973,4.0,4.166917326,176.6983525,4.89,'11111222,11111222,11111222' 
TABS,ioos:station:wmo:42047:1,2013-08-03T13:30:00Z,27.8966,-93.5973,4.0,3.730482543,179.0786442,4.24,'11111222,11111222,11111222' 
TABS,ioos:station:wmo:42047:1,2013-08-03T14:00:00Z,27.8966,-93.5973,4.0,3.670667514,178.9075105,4.29,'11111222,11111222,11111222' 
TABS,ioos:station:wmo:42047:1,2013-08-03T14:30:00Z,27.8966,-93.5973,4.0,3.511993736,175.2636765,4.09,'11111222,11111222,11111222' 
TABS,ioos:station:wmo:42047:1,2013-08-03T15:00:00Z,27.8966,-93.5973,4.0,3.755329546,176.9473351,4.94,'11111222,11111222,11111222' 
TABS,ioos:station:wmo:42047:1,2013-08-03T15:30:00Z,27.8966,-93.5973,4.0,2.615530539,176.2735742,3.47,'11111222,11111222,11111222' 
TABS,ioos:station:wmo:42047:1,2013-08-03T16:00:00Z,27.8966,-93.5973,4.0,2.580174413,179.334012,3.09,'11111222,11111222,11111222' 
TABS,ioos:station:wmo:42047:1,2013-08-03T16:30:00Z,27.8966,-93.5973,4.0,2.476812468,164.7857051,3.21,'11111222,11111222,11111222' 
TABS,ioos:station:wmo:42047:1,2013-08-03T17:00:00Z,27.8966,-93.5973,4.0,2.008233054,154.3283996,2.59,'11111222,11111222,11111222' 
TABS,ioos:station:wmo:42047:1,2013-08-03T17:30:00Z,27.8966,-93.5973,4.0,2.170092164,179.4721549,2.95,'11111222,11111222,11111222' 
TABS,ioos:station:wmo:42047:1,2013-08-03T18:00:00Z,27.8966,-93.5973,4.0,1.382244551,154.732959,1.86,'11111222,11111222,11111222' 
TABS,ioos:station:wmo:42047:1,2013-08-03T18:30:00Z,27.8966,-93.5973,4.0,1.110180166,150.8955469,1.62,'11111222,11111222,11111222' 
TABS,ioos:station:wmo:42047:1,2013-08-03T19:00:00Z,27.8966,-93.5973,4.0,1.387083271,137.3376161,1.89,'11111222,11111222,11111222' 
TABS,ioos:station:wmo:42047:1,2013-08-03T19:30:00Z,27.8966,-93.5973,4.0,1.507116452,140.9248838,1.98,'11111222,11111222,11111222' 
TABS,ioos:station:wmo:42047:1,2013-08-03T20:00:00Z,27.8966,-93.5973,4.0,2.407072911,151.7317638,3.31,'11111222,11111222,11111222' 
TABS,ioos:station:wmo:42047:1,2013-08-03T20:30:00Z,27.8966,-93.5973,4.0,2.837780823,147.3742414,3.52,'11111222,11111222,11111222' 
TABS,ioos:station:wmo:42047:1,2013-08-03T21:00:00Z,27.8966,-93.5973,4.0,2.014571915,144.4956773,2.73,'11111222,11111222,11111222' 
TABS,ioos:station:wmo:42047:1,2013-08-03T21:30:00Z,27.8966,-93.5973,4.0,2.186869909,140.1947324,2.93,'11111222,11111222,11111222' 
TABS,ioos:station:wmo:42047:1,2013-08-03T22:00:00Z,27.8966,-93.5973,4.0,2.62497619,132.9934726,3.53,'11111222,11111222,11111222' 
TABS,ioos:station:wmo:42047:1,2013-08-03T22:30:00Z,27.8966,-93.5973,4.0,2.489176571,134.3492568,3.32,'11111222,11111222,11111222' 
TABS,ioos:station:wmo:42047:1,2013-08-03T23:00:00Z,27.8966,-93.5973,4.0,3.358466912,144.0858066,4.39,'11111222,11111222,11111222' 
TABS,ioos:station:wmo:42047:1,2013-08-03T23:30:00Z,27.8966,-93.5973,4.0,3.460924732,141.8058802,4.17,'11111222,11111222,11111222' 
TABS,ioos:station:wmo:42047:1,2013-08-04T00:00:00Z,27.8966,-93.5973,4.0,3.260138034,142.6031534,4.3,'11111222,11111222,11111222' 
TABS,ioos:station:wmo:42047:1,2013-08-04T00:30:00Z,27.8966,-93.5973,4.0,3.777737418,145.6792379,4.75,'11111222,11111222,11111222' 
TABS,ioos:station:wmo:42047:1,2013-08-04T01:00:00Z,27.8966,-93.5973,4.0,3.748172888,143.6807138,4.43,'11111222,11111222,11111222' 
TABS,ioos:station:wmo:42047:1,2013-08-04T01:30:00Z,27.8966,-93.5973,4.0,3.224406922,135.0003157,4.41,'11111222,11111222,11111222' 
TABS,ioos:station:wmo:42047:1,2013-08-04T02:00:00Z,27.8966,-93.5973,4.0,3.966761904,147.351846,4.64,'11111222,11111222,11111222' 
TABS,ioos:station:wmo:42047:1,2013-08-04T02:30:00Z,27.8966,-93.5973,4.0,5.337312058,147.4714609,6.6,'11111222,11111222,11111222' 
TABS,ioos:station:wmo:42047:1,2013-08-04T03:00:00Z,27.8966,-93.5973,4.0,5.115789284,151.1306036,6.01,'11111222,11111222,11111222' 
TABS,ioos:station:wmo:42047:1,2013-08-04T03:30:00Z,27.8966,-93.5973,4.0,5.456308276,150.0991027,6.21,'11111222,11111222,11111222' 
TABS,ioos:station:wmo:42047:1,2013-08-04T04:00:00Z,27.8966,-93.5973,4.0,5.61495325,147.5838775,6.43,'11111222,11111222,11111222' 
TABS,ioos:station:wmo:42047:1,2013-08-04T04:30:00Z,27.8966,-93.5973,4.0,6.076643811,151.4951681,6.82,'11111222,11111222,11111222' 
TABS,ioos:station:wmo:42047:1,2013-08-04T05:00:00Z,27.8966,-93.5973,4.0,5.845784806,158.5264601,6.78,'11111222,11111222,11111222' 
TABS,ioos:station:wmo:42047:1,2013-08-04T05:30:00Z,27.8966,-93.5973,4.0,6.110466431,162.5735091,7.37,'11111222,11111222,11111222' 
TABS,ioos:station:wmo:42047:1,2013-08-04T06:00:00Z,27.8966,-93.5973,4.0,5.927647088,167.6286933,6.67,'11111222,11111222,11111222' 
TABS,ioos:station:wmo:42047:1,2013-08-04T06:30:00Z,27.8966,-93.5973,4.0,5.419372657,171.5112864,6.54,'11111222,11111222,11111222' 
TABS,ioos:station:wmo:42047:1,2013-08-04T07:00:00Z,27.8966,-93.5973,4.0,5.914727382,173.788403,7.1,'11111222,11111222,11111222' 
TABS,ioos:station:wmo:42047:1,2013-08-04T07:30:00Z,27.8966,-93.5973,4.0,5.920033784,180.1937761,6.79,'11111222,11111222,11111222' 
TABS,ioos:station:wmo:42047:1,2013-08-04T08:00:00Z,27.8966,-93.5973,4.0,5.653963212,174.723222,6.61,'11111222,11111222,11111222' 
TABS,ioos:station:wmo:42047:1,2013-08-04T08:30:00Z,27.8966,-93.5973,4.0,5.27,180.0002105,6.46,'11111222,11111222,11111222' 
TABS,ioos:station:wmo:42047:1,2013-08-04T09:00:00Z,27.8966,-93.5973,4.0,5.327410253,188.4192792,6.35,'11111222,11111222,11111222' 
TABS,ioos:station:wmo:42047:1,2013-08-04T09:30:00Z,27.8966,-93.5973,4.0,4.588082388,192.4612636,5.43,'11111222,11111222,11111222' 
TABS,ioos:station:wmo:42047:1,2013-08-04T10:00:00Z,27.8966,-93.5973,4.0,4.665125936,192.7554527,5.76,'11111222,11111222,11111222' 
TABS,ioos:station:wmo:42047:1,2013-08-04T10:30:00Z,27.8966,-93.5973,4.0,4.934774564,196.9663189,5.68,'11111222,11111222,11111222' 
TABS,ioos:station:wmo:42047:1,2013-08-04T11:00:00Z,27.8966,-93.5973,4.0,4.91366462,196.5542223,5.73,'11111222,11111222,11111222' 
TABS,ioos:station:wmo:42047:1,2013-08-04T11:30:00Z,27.8966,-93.5973,4.0,4.349252809,202.4376175,5.32,'11111222,11111222,11111222' 
TABS,ioos:station:wmo:42047:1,2013-08-04T12:00:00Z,27.8966,-93.5973,4.0,3.860116579,189.2428946,4.56,'11111222,11111222,11111222' 
TABS,ioos:station:wmo:42047:1,2013-08-04T12:30:00Z,27.8966,-93.5973,4.0,3.26695577,193.9938854,3.76,'11111222,11111222,11111222' 
TABS,ioos:station:wmo:42047:1,2013-08-04T13:00:00Z,27.8966,-93.5973,4.0,2.917841668,200.6711205,3.56,'11111222,11111222,11111222' 
TABS,ioos:station:wmo:42047:1,2013-08-04T13:30:00Z,27.8966,-93.5973,4.0,2.844872581,205.3942252,3.37,'11111222,11111222,11111222' 
TABS,ioos:station:wmo:42047:1,2013-08-04T14:00:00Z,27.8966,-93.5973,4.0,2.208574201,203.1987467,3.01,'11111222,11111222,11111222' 
TABS,ioos:station:wmo:42047:1,2013-08-04T14:30:00Z,27.8966,-93.5973,4.0,2.122686976,192.7924826,2.72,'11111222,11111222,11111222' 
TABS,ioos:station:wmo:42047:1,2013-08-04T15:00:00Z,27.8966,-93.5973,4.0,2.135275158,184.0284647,2.43,'11111222,11111222,11111222' 
TABS,ioos:station:wmo:42047:1,2013-08-04T15:30:00Z,27.8966,-93.5973,4.0,2.394598087,168.924929,2.84,'11111222,11111222,11111222' 
TABS,ioos:station:wmo:42047:1,2013-08-04T16:00:00Z,27.8966,-93.5973,4.0,2.323553313,165.5453543,3.03,'11111222,11111222,11111222' 
TABS,ioos:station:wmo:42047:1,2013-08-04T16:30:00Z,27.8966,-93.5973,4.0,2.800017857,179.795584,3.6,'11111222,11111222,11111222' 
TABS,ioos:station:wmo:42047:1,2013-08-04T17:00:00Z,27.8966,-93.5973,4.0,2.818315099,165.6188495,3.38,'11111222,11111222,11111222' 
TABS,ioos:station:wmo:42047:1,2013-08-04T17:30:00Z,27.8966,-93.5973,4.0,2.265656638,171.3694289,3.03,'11111222,11111222,11111222' 
TABS,ioos:station:wmo:42047:1,2013-08-04T18:00:00Z,27.8966,-93.5973,4.0,2.153346233,176.8056285,2.88,'11111222,11111222,11111222' 
TABS,ioos:station:wmo:42047:1,2013-08-04T18:30:00Z,27.8966,-93.5973,4.0,2.203270297,176.8780873,3.07,'11111222,11111222,11111222' 